ITAMSAT (IO-26)

Last updated on Sun Jun 21 2026 00:03:19 GMT+0000 (Coordinated Universal Time)

1 22826U 93061D 26171.12497805 .00000065 00000+0 41439-4 0 9997 2 22826 98.6826 238.4553 0010030 77.4626 282.7678 14.31369966707739
UTC large
Height (km)
Speed (km/s)
/
Latitude / Longitude
Inclination (degrees)
Orbital Period (minutes)
Azimuth
Elevation
Range (km)
Doppler Factor

Next 0 passes for location: London (51.5072 / 0.1276)

No passes found over London.
ITAMSAT (IO-26)